Temp
64 63 64 64 65 66 66 66 65 65 67 68 68 68 69 68 67 66 66 67 67 68 69 68 66 66 68 68 67 68 67 66 65 63 62 63 61 62 63 63 63 64 64 61 61 59 58 56 57 61 62 62 63 63 63 63 63 64 64 63 64 63 63
64 63 64 65 65 65 64 64 65 65 66 67 68 70 69 68 68 67 68 68 67 68 69 68 67 68 68 66 66 66 66 65 66 65 64 62 63 62 61 61 62 61 61 62 62 61 56 56 56 58 58 61 61 62 62 63 64 64 64 64 65 64 63
62 63 64 64 64 64 64 64 64 64 65 67 68 70 69 69 68 68 67 67 67 68 68 69 68 67 67 67 66 66 65 65 65 65 64 63 64 64 63 62 62 60 60 60 60 59 59 59 56 56 56 56 56 58 61 62 64 64 65 64 64 64 63
63 63 63 62 63 64 64 64 64 65 66 67 68 69 70 70 69 69 68 67 68 68 69 68 67 68 66 67 67 66 65 65 64 64 64 63 64 63 63 63 62 62 60 57 59 59 58 57 56 56 58 58 58 58 60 63 64 65 66 64 63 62 62
64 64 63 62 63 64 65 65 65 66 66 68 68 68 69 70 69 68 69 69 68 67 67 66 67 68 68 67 66 66 65 65 65 65 64 63 63 63 62 62 61 62 60 61 61 61 60 59 59 57 57 59 60 60 64 62 65 65 65 65 65 64 63
64 64 64 64 64 65 65 65 65 66 66 66 66 67 67 68 68 68 68 67 67 67 67 68 66 68 67 66 66 66 65 65 65 65 63 63 63 62 62 62 62 62 62 62 63 62 61 61 61 58 60 62 57 59 62 63 60 64 66 65 66 64 63
64 64 64 64 65 65 66 66 66 66 66 66 66 67 68 69 68 68 69 69 69 68 67 67 67 67 67 66 66 66 66 65 65 64 64 64 64 63 63 62 62 62 62 63 62 62 61 61 59 60 59 60 61 60 63 62 64 62 63 64 66 65 64
64 64 63 64 65 65 65 66 66 67 66 66 67 67 69 69 68 67 68 68 67 67 67 66 67 66 66 66 66 66 66 66 65 65 64 65 65 64 63 63 63 63 62 62 62 63 63 63 62 61 61 57 57 58 58 62 62 62 62 63 67 64 63
63 64 64 63 64 65 66 66 66 66 66 67 67 68 68 68 67 68 68 67 67 67 67 67 66 66 65 65 65 65 65 68 65 65 64 65 64 64 64 63 64 63 63 63 64 62 62 63 63 62 61 62 58 55 56 56 58 59 65 61 63 64 62
63 63 63 63 64 64 65 66 67 67 67 67 67 67 67 67 67 67 67 66 66 67 66 66 66 66 65 65 65 64 65 65 65 65 64 64 64 63 63 64 63 62 63 63 63 63 63 63 63 62 64 61 60 58 54 52 54 57 62 64 59 60 63
64 63 63 63 63 64 64 65 66 66 66 68 68 68 67 66 66 68 65 65 65 66 66 65 67 66 64 64 65 64 64 64 63 63 63 64 64 64 63 63 63 62 63 63 62 63 63 63 62 64 64 61 62 60 56 55 55 57 59 61 61 59 61
63 63 64 64 64 64 63 65 66 66 67 66 66 66 66 65 65 65 65 64 65 65 63 65 65 64 64 64 63 63 64 64 63 63 63 64 64 64 63 62 62 61 62 62 62 64 64 63 63 63 63 64 63 62 59 58 55 57 62 59 60 63 62
63 64 64 63 64 64 65 66 66 66 66 66 66 66 65 66 65 65 64 64 63 63 66 66 64 64 65 64 64 66 65 65 64 63 63 64 66 64 63 62 61 61 60 61 62 63 63 62 62 63 65 63 62 62 61 57 55 58 59 59 60 62 63
64 65 65 65 65 65 66 66 66 66 66 66 66 65 65 65 66 66 65 64 63 62 62 63 65 64 64 63 63 64 63 65 65 63 64 64 65 64 63 62 61 62 61 62 61 62 62 63 63 63 64 62 62 62 63 58 57 56 58 60 60 61 63
65 65 65 66 66 66 67 67 67 67 67 66 67 66 66 66 66 66 65 63 63 62 64 65 63 63 63 62 62 66 64 64 64 64 64 64 64 65 63 62 62 61 62 62 61 64 63 63 64 63 63 64 63 64 61 57 55 53 56 57 57 61 61
66 65 66 66 65 66 66 67 68 67 66 66 66 66 67 68 67 67 65 63 63 63 64 64 61 63 64 63 62 62 63 64 63 62 62 64 65 65 63 62 61 62 63 63 62 61 62 63 65 67 64 64 64 63 62 62 58 56 57 56 58 60 60
66 64 65 64 65 65 66 66 67 67 67 67 66 65 69 68 67 66 64 64 64 63 63 63 63 65 64 62 64 64 62 62 62 62 63 64 65 64 63 62 62 62 62 61 61 61 62 62 63 63 62 60 61 62 59 62 64 57 55 59 58 62 60
62 62 63 65 65 65 66 67 66 67 67 66 65 67 68 66 66 66 65 65 64 63 64 63 64 63 62 63 64 64 63 62 62 62 62 64 65 63 63 63 63 62 60 62 61 61 63 62 67 65 65 64 63 63 62 62 62 63 59 59 58 59 61
62 62 63 65 66 66 66 66 65 65 66 65 65 67 66 65 67 66 65 66 63 64 64 63 63 62 63 62 61 62 62 63 63 63 63 63 63 63 62 62 61 61 61 60 60 60 61 62 62 61 62 65 65 62 62 60 60 58 59 58 57 58 57
61 61 63 65 65 65 65 65 66 66 66 66 65 66 65 66 65 66 64 64 64 63 61 60 61 62 62 62 63 63 64 63 63 63 62 63 64 63 63 62 61 61 60 60 61 60 60 61 62 60 61 64 62 62 60 60 61 61 61 59 55 57 59
60 62 64 66 65 65 65 66 65 65 66 66 65 66 66 67 67 64 62 60 58 58 56 54 55 58 61 62 62 62 62 61 62 63 63 63 63 63 62 61 61 60 60 60 60 59 61 61 60 60 59 61 61 60 58 58 57 56 57 58 58 57 57
60 62 63 65 65 65 65 64 64 65 65 65 65 65 67 66 64 62 61 59 57 55 53 50 47 49 57 61 60 62 62 63 63 63 62 63 63 62 61 60 59 59 60 59 55 56 57 59 61 59 58 58 58 57 57 59 56 56 56 55 56 57 56
61 61 62 64 64 64 63 64 64 65 65 63 62 64 66 64 62 60 58 57 55 52 49 48 45 43 47 60 60 63 61 62 61 62 64 63 62 62 62 61 61 61 58 57 54 50 49 52 56 59 59 58 57 58 57 56 56 56 56 55 56 56 54
60 61 62 63 62 63 64 64 64 63 62 62 62 61 62 61 60 59 58 56 52 49 47 45 42 40 42 47 59 60 61 60 59 62 63 63 61 61 60 60 58 60 58 56 52 47 47 47 47 48 49 53 58 59 55 54 55 55 55 55 54 53 53
58 58 59 61 63 64 64 63 63 62 62 62 62 61 60 59 59 58 56 54 51 49 46 42 39 40 42 42 48 58 61 62 62 60 61 61 61 60 60 60 61 61 61 59 57 54 49 44 42 43 44 45 45 45 50 58 55 52 52 53 53 54 53
57 57 57 59 61 62 62 62 62 62 61 61 61 60 58 57 56 56 54 52 49 48 46 40 39 40 41 42 43 54 61 61 61 61 61 61 60 60 60 59 59 59 59 58 56 56 55 53 46 45 48 49 46 46 44 44 48 55 53 52 54 52 54
57 56 57 57 59 59 59 59 59 59 60 60 59 57 56 55 54 53 52 50 48 47 45 41 39 40 40 41 44 53 60 61 61 61 60 61 61 60 59 58 58 57 56 52 51 52 54 56 56 57 57 56 55 52 48 45 42 41 48 56 54 55 52
56 57 57 57 57 57 57 57 57 57 57 57 57 55 54 53 52 51 50 49 48 46 44 40 40 40 40 41 43 53 61 62 61 60 59 59 60 59 59 59 58 57 55 50 47 46 51 54 55 56 55 55 54 55 54 56 55 53 52 52 51 53 54
56 57 56 56 56 56 56 56 56 55 55 55 56 55 54 53 51 50 50 49 48 47 45 40 41 41 41 41 48 60 62 61 59 57 58 58 58 58 58 58 57 55 52 49 43 39 42 51 57 55 54 53 53 53 54 55 52 51 53 54 54 53 52
56 56 56 57 56 56 56 56 55 55 55 54 53 52 51 51 51 51 50 49 49 48 47 43 41 41 41 41 53 60 61 60 58 57 56 55 54 54 56 57 55 52 50 47 40 39 41 51 56 55 54 54 54 54 55 56 52 49 46 44 43 43 43
54 54 54 54 54 54 54 55 55 55 54 53 51 51 51 50 50 50 49 49 49 48 47 44 42 42 43 45 52 59 60 59 57 55 53 52 51 50 51 53 54 51 49 46 38 39 42 52 54 53 53 52 53 53 53 53 54 55 47 42 41 41 41
53 53 53 52 53 53 53 53 53 54 53 53 52 52 52 52 51 50 50 49 50 48 47 46 43 43 44 45 52 56 58 58 56 54 52 50 50 50 49 46 46 46 47 41 37 38 40 49 53 51 50 50 50 49 48 49 50 50 53 55 55 52 49
53 52 52 52 52 52 52 52 53 53 53 53 52 51 50 49 49 48 49 49 49 48 47 46 44 43 44 45 47 54 54 55 54 54 53 52 50 50 50 49 44 38 38 38 37 36 37 41 49 48 48 48 48 49 48 47 48 49 51 51 53 53 54
53 53 53 52 52 52 52 52 52 53 52 52 51 50 50 49 48 47 47 48 47 47 47 46 44 42 43 44 45 48 51 51 52 53 53 52 51 50 49 47 45 40 39 38 37 36 36 36 38 44 46 48 49 46 41 46 47 46 49 50 52 52 54
55 55 54 53 53 53 54 54 54 53 53 52 51 50 50 50 49 47 47 47 47 47 48 48 48 43 42 42 42 45 49 47 48 53 52 50 49 48 47 46 45 41 40 40 39 39 37 36 33 41 44 39 38 38 43 44 45 46 48 49 49 50 50
53 54 54 54 52 51 52 54 55 55 53 52 52 51 50 50 49 48 48 48 47 47 46 47 44 46 42 42 41 41 42 44 43 50 49 48 48 47 47 47 46 42 38 39 39 39 40 38 39 41 38 36 37 36 36 42 44 46 46 47 48 48 48
51 51 51 50 49 48 47 48 48 50 52 52 51 51 50 50 49 49 48 47 47 47 47 47 44 43 44 42 42 41 41 40 41 46 47 46 45 44 45 44 42 37 38 38 38 38 39 41 42 41 38 35 35 36 41 44 44 47 45 45 46 46 47
MSLP
1014.96 1015.24 1015.48 1015.56 1015.64 1015.68 1015.76 1015.88 1016.04 1016.32 1016.52 1016.64 1016.72 1016.96 1017.28 1017.44 1017.68 1018.04 1018.28 1018.36 1018.72 1019.00 1018.68 1018.84 1019.04 1019.16 1019.24 1019.36 1019.52 1019.80 1020.12 1020.32 1020.64 1021.12 1021.56 1021.44 1021.52 1021.56 1021.12 1021.16 1021.20 1021.20 1021.48 1021.56 1022.00 1022.68 1023.48 1024.28 1024.44 1023.96 1023.84 1023.76 1023.60 1023.48 1023.44 1023.36 1023.32 1023.32 1023.40 1023.44 1023.52 1023.60 1023.64
1015.04 1015.28 1015.44 1015.48 1015.64 1015.68 1015.96 1016.04 1016.16 1016.32 1016.44 1016.60 1016.76 1016.88 1017.16 1017.48 1017.72 1018.08 1018.08 1018.28 1018.48 1018.44 1018.44 1018.68 1018.88 1019.00 1019.20 1019.44 1019.76 1020.00 1020.24 1020.36 1020.44 1020.68 1021.04 1021.32 1021.24 1021.36 1021.36 1021.40 1021.32 1021.52 1021.60 1021.72 1022.00 1022.28 1023.16 1024.08 1024.44 1024.32 1024.36 1023.92 1023.80 1023.56 1023.36 1023.28 1023.16 1023.16 1023.36 1023.52 1023.56 1023.64 1023.80
1015.32 1015.44 1015.56 1015.72 1015.80 1015.76 1016.00 1016.12 1016.20 1016.36 1016.44 1016.56 1016.72 1016.72 1016.96 1017.28 1017.52 1017.76 1018.00 1018.12 1018.16 1018.24 1018.36 1018.56 1018.76 1019.00 1019.16 1019.44 1019.72 1019.96 1020.20 1020.36 1020.36 1020.52 1020.80 1020.96 1021.04 1021.04 1021.00 1021.12 1021.52 1021.80 1021.92 1022.16 1022.28 1022.52 1022.92 1023.04 1023.76 1024.32 1024.28 1024.24 1024.36 1023.92 1023.52 1023.40 1023.28 1023.36 1023.48 1023.56 1023.68 1023.84 1024.00
1015.40 1015.52 1015.88 1016.08 1015.92 1015.96 1016.12 1016.24 1016.32 1016.28 1016.32 1016.40 1016.48 1016.72 1016.84 1017.08 1017.24 1017.44 1017.68 1017.92 1017.96 1018.12 1018.24 1018.48 1018.68 1018.88 1019.20 1019.44 1019.68 1019.96 1020.20 1020.36 1020.48 1020.56 1020.76 1020.84 1020.88 1020.96 1020.96 1021.00 1021.36 1021.44 1021.64 1022.08 1022.24 1022.44 1022.68 1023.16 1023.76 1024.16 1024.16 1024.04 1023.96 1024.12 1023.76 1023.40 1023.40 1023.56 1023.64 1023.68 1023.84 1024.04 1024.16
1015.20 1015.52 1015.84 1016.16 1016.12 1016.04 1016.08 1016.20 1016.20 1016.28 1016.36 1016.32 1016.32 1016.60 1016.80 1016.88 1017.16 1017.40 1017.48 1017.68 1017.92 1018.16 1018.32 1018.40 1018.56 1018.76 1019.00 1019.32 1019.68 1019.96 1020.24 1020.32 1020.36 1020.52 1020.68 1020.88 1020.88 1020.96 1020.92 1020.96 1021.16 1021.24 1021.36 1021.60 1021.88 1022.04 1022.36 1022.76 1023.00 1023.68 1023.92 1023.80 1023.88 1023.80 1023.64 1023.64 1023.56 1023.76 1023.80 1023.84 1023.92 1024.08 1024.24
1015.20 1015.44 1015.76 1016.00 1016.04 1016.08 1016.04 1016.16 1016.24 1016.40 1016.40 1016.52 1016.56 1016.68 1016.80 1016.80 1016.96 1017.32 1017.52 1017.72 1017.96 1018.08 1018.20 1018.36 1018.60 1018.76 1019.00 1019.28 1019.64 1019.92 1020.12 1020.32 1020.40 1020.44 1020.64 1020.72 1020.80 1020.92 1021.04 1021.08 1021.12 1021.20 1021.36 1021.44 1021.64 1021.88 1022.12 1022.44 1022.84 1023.52 1023.56 1023.40 1023.88 1023.96 1023.84 1023.80 1024.20 1024.00 1023.84 1023.96 1024.00 1024.12 1024.24
1015.32 1015.44 1015.68 1015.92 1015.96 1015.88 1015.84 1015.96 1016.08 1016.20 1016.40 1016.48 1016.56 1016.68 1016.64 1016.72 1016.92 1017.12 1017.28 1017.44 1017.60 1017.88 1018.16 1018.40 1018.60 1018.72 1018.96 1019.28 1019.60 1019.88 1020.04 1020.12 1020.16 1020.28 1020.40 1020.52 1020.64 1020.68 1020.80 1021.12 1021.20 1021.24 1021.32 1021.40 1021.56 1021.76 1022.12 1022.48 1022.92 1023.04 1023.40 1023.52 1023.56 1023.92 1023.80 1024.00 1024.08 1024.32 1024.32 1024.04 1024.04 1024.16 1024.28
1015.36 1015.48 1015.68 1015.84 1015.88 1015.84 1015.76 1015.84 1015.96 1016.00 1016.24 1016.40 1016.48 1016.52 1016.52 1016.68 1016.88 1017.12 1017.28 1017.44 1017.68 1017.92 1018.12 1018.36 1018.52 1018.72 1018.92 1019.20 1019.44 1019.64 1019.80 1019.92 1020.08 1020.20 1020.32 1020.40 1020.56 1020.60 1020.68 1020.84 1021.04 1021.16 1021.24 1021.32 1021.44 1021.68 1021.80 1022.04 1022.24 1022.56 1022.84 1023.72 1024.08 1023.92 1024.12 1024.08 1024.20 1024.16 1024.28 1024.16 1024.16 1024.32 1024.32
1015.40 1015.52 1015.68 1015.76 1015.80 1015.64 1015.68 1015.72 1015.88 1015.96 1016.08 1016.28 1016.36 1016.44 1016.60 1016.76 1017.00 1017.16 1017.32 1017.56 1017.68 1017.84 1018.08 1018.24 1018.48 1018.72 1018.92 1019.16 1019.40 1019.48 1019.72 1019.72 1020.00 1020.12 1020.24 1020.24 1020.32 1020.36 1020.44 1020.56 1020.84 1021.08 1021.12 1021.28 1021.36 1021.48 1021.52 1021.64 1021.88 1022.12 1022.40 1022.76 1023.40 1024.44 1024.28 1024.60 1024.44 1024.36 1023.92 1024.36 1024.48 1024.32 1024.40
1015.48 1015.64 1015.72 1015.72 1015.72 1015.64 1015.64 1015.68 1015.76 1015.84 1015.96 1016.16 1016.36 1016.48 1016.68 1016.80 1016.96 1017.12 1017.36 1017.56 1017.72 1017.84 1018.00 1018.20 1018.44 1018.64 1018.88 1019.08 1019.28 1019.40 1019.64 1019.68 1019.88 1020.04 1020.12 1020.24 1020.24 1020.24 1020.36 1020.52 1020.72 1020.96 1021.08 1021.16 1021.24 1021.32 1021.40 1021.44 1021.56 1021.72 1021.92 1022.32 1022.60 1023.28 1024.28 1024.68 1024.52 1024.44 1024.28 1024.04 1024.56 1024.72 1024.52
1015.44 1015.56 1015.68 1015.76 1015.72 1015.68 1015.68 1015.72 1015.68 1015.88 1016.04 1016.16 1016.32 1016.52 1016.64 1016.84 1017.08 1017.16 1017.40 1017.60 1017.76 1017.88 1018.00 1018.20 1018.32 1018.48 1018.76 1019.04 1019.12 1019.24 1019.40 1019.64 1019.88 1020.00 1020.08 1020.16 1020.28 1020.28 1020.36 1020.52 1020.60 1020.84 1020.88 1021.04 1021.16 1021.20 1021.28 1021.32 1021.40 1021.56 1021.68 1021.76 1022.00 1022.76 1023.16 1023.92 1024.24 1023.80 1024.08 1024.00 1023.88 1024.40 1024.68
1015.52 1015.56 1015.64 1015.68 1015.68 1015.68 1015.72 1015.76 1015.72 1015.92 1016.04 1016.20 1016.40 1016.60 1016.84 1017.08 1017.20 1017.28 1017.36 1017.64 1017.76 1017.92 1018.04 1018.24 1018.28 1018.48 1018.68 1019.04 1019.12 1019.24 1019.36 1019.52 1019.80 1020.08 1020.16 1020.28 1020.36 1020.36 1020.48 1020.60 1020.68 1020.80 1020.88 1021.00 1021.04 1021.08 1021.16 1021.20 1021.28 1021.36 1021.36 1021.48 1021.80 1021.96 1022.52 1023.20 1024.00 1023.64 1023.32 1023.92 1024.00 1023.92 1024.28
1016.16 1015.84 1015.52 1015.80 1015.92 1015.68 1015.68 1015.68 1015.80 1016.00 1016.16 1016.28 1016.44 1016.60 1016.88 1017.12 1017.20 1017.28 1017.40 1017.60 1017.88 1018.04 1018.20 1018.24 1018.32 1018.52 1018.64 1018.84 1019.00 1019.16 1019.28 1019.40 1019.72 1020.00 1020.20 1020.28 1020.36 1020.40 1020.48 1020.64 1020.76 1020.84 1020.88 1020.92 1020.96 1021.00 1021.04 1021.24 1021.32 1021.32 1021.20 1021.44 1021.68 1021.72 1021.96 1022.60 1023.24 1023.72 1023.28 1023.44 1023.76 1024.12 1024.24
1016.04 1015.64 1015.44 1015.80 1015.72 1015.64 1015.64 1015.60 1015.76 1015.96 1016.12 1016.32 1016.40 1016.64 1016.88 1017.04 1017.12 1017.24 1017.44 1017.68 1017.88 1018.04 1018.20 1018.36 1018.36 1018.44 1018.64 1018.88 1019.00 1019.04 1019.16 1019.32 1019.60 1019.88 1020.04 1020.24 1020.24 1020.32 1020.44 1020.68 1020.76 1020.72 1020.72 1020.88 1020.96 1021.04 1021.08 1021.12 1021.12 1021.24 1021.32 1021.52 1021.68 1021.60 1021.72 1022.24 1023.00 1023.52 1023.52 1023.44 1023.68 1024.04 1024.32
1015.60 1015.32 1015.36 1015.36 1015.48 1015.60 1015.64 1015.64 1015.72 1015.84 1016.08 1016.20 1016.28 1016.56 1016.68 1016.92 1017.08 1017.32 1017.56 1017.76 1017.92 1018.08 1018.24 1018.24 1018.32 1018.52 1018.76 1018.96 1019.00 1018.96 1019.16 1019.36 1019.52 1019.76 1019.92 1020.20 1020.24 1020.24 1020.40 1020.60 1020.68 1020.64 1020.60 1020.76 1020.88 1020.92 1020.92 1020.92 1020.92 1021.20 1021.28 1021.36 1021.44 1021.52 1021.48 1022.12 1022.84 1023.28 1024.00 1024.04 1024.12 1024.08 1024.28
1015.00 1015.12 1015.20 1015.28 1015.44 1015.56 1015.72 1015.72 1015.60 1015.80 1015.96 1016.08 1016.20 1016.40 1016.64 1016.84 1017.12 1017.32 1017.64 1017.84 1018.00 1018.16 1018.24 1018.28 1018.40 1018.52 1018.68 1018.80 1019.04 1019.16 1019.16 1019.32 1019.52 1019.72 1019.92 1020.12 1020.20 1020.24 1020.40 1020.52 1020.52 1020.48 1020.56 1020.68 1020.72 1020.80 1020.84 1020.96 1020.92 1020.84 1021.04 1021.04 1021.24 1021.48 1021.64 1021.72 1022.40 1023.24 1023.76 1024.08 1023.92 1024.16 1024.28
1014.72 1014.92 1015.04 1015.24 1015.48 1015.52 1015.68 1015.72 1015.68 1015.72 1015.84 1015.96 1016.24 1016.40 1016.52 1016.84 1017.12 1017.40 1017.68 1017.92 1018.04 1018.20 1018.32 1018.40 1018.48 1018.44 1018.56 1018.88 1019.00 1019.12 1019.20 1019.28 1019.40 1019.56 1019.72 1019.92 1020.08 1020.20 1020.28 1020.44 1020.44 1020.40 1020.48 1020.60 1020.72 1020.76 1020.84 1020.68 1020.64 1020.92 1021.08 1021.24 1021.44 1021.68 1021.76 1021.84 1022.04 1022.68 1023.32 1023.72 1023.96 1023.80 1024.00
1014.88 1015.44 1015.44 1015.20 1015.28 1015.40 1015.56 1015.56 1015.72 1015.80 1015.88 1016.08 1016.28 1016.48 1016.64 1016.84 1017.24 1017.48 1017.76 1017.96 1018.12 1018.28 1018.28 1018.40 1018.44 1018.48 1018.64 1018.76 1018.80 1019.00 1019.16 1019.32 1019.44 1019.52 1019.60 1019.72 1019.92 1020.04 1020.12 1020.20 1020.24 1020.36 1020.48 1020.64 1020.56 1020.64 1020.56 1020.56 1020.68 1020.96 1021.12 1021.20 1021.40 1021.52 1021.76 1021.96 1022.12 1022.24 1022.76 1023.28 1023.60 1023.52 1023.56
1014.92 1015.64 1015.48 1015.12 1015.28 1015.48 1015.40 1015.48 1015.80 1015.92 1015.96 1016.16 1016.28 1016.48 1016.72 1017.00 1017.24 1017.48 1017.68 1017.84 1018.04 1018.24 1018.20 1018.32 1018.48 1018.52 1018.52 1018.68 1018.92 1019.04 1019.20 1019.32 1019.64 1019.64 1019.60 1019.72 1019.84 1019.88 1020.04 1020.08 1020.24 1020.36 1020.44 1020.56 1020.76 1020.72 1020.56 1020.88 1020.96 1021.04 1021.12 1021.12 1021.16 1021.36 1021.68 1021.92 1022.20 1022.48 1022.64 1022.80 1023.12 1023.36 1023.48
1014.88 1015.40 1015.40 1015.16 1015.32 1015.48 1015.48 1015.60 1015.80 1015.96 1015.92 1016.08 1016.32 1016.56 1016.80 1017.08 1017.24 1017.40 1017.64 1017.84 1018.20 1018.44 1018.64 1018.80 1018.80 1018.60 1018.64 1018.76 1018.88 1019.12 1019.28 1019.36 1019.52 1019.52 1019.60 1019.72 1019.80 1019.92 1019.96 1020.08 1020.24 1020.40 1020.48 1020.52 1020.64 1020.76 1020.80 1020.84 1021.00 1021.12 1021.08 1021.12 1021.28 1021.40 1021.76 1021.96 1022.16 1022.36 1022.56 1022.68 1023.08 1023.12 1023.24
1015.24 1015.48 1015.16 1015.04 1015.24 1015.44 1015.52 1015.64 1015.84 1015.92 1015.96 1016.16 1016.40 1016.64 1016.92 1017.12 1017.24 1017.60 1018.16 1018.52 1018.80 1019.00 1019.28 1019.48 1019.36 1019.12 1018.92 1018.80 1018.88 1019.08 1019.24 1019.40 1019.56 1019.64 1019.68 1019.76 1019.84 1019.96 1020.12 1020.28 1020.44 1020.44 1020.44 1020.52 1020.64 1020.80 1020.76 1020.92 1021.04 1021.28 1021.40 1021.16 1021.28 1021.44 1021.80 1021.96 1022.28 1022.52 1022.72 1022.84 1022.92 1023.28 1023.32
1015.04 1015.76 1015.28 1015.04 1015.24 1015.52 1015.64 1015.76 1015.88 1016.00 1016.12 1016.36 1016.52 1016.68 1016.84 1017.12 1017.84 1018.44 1018.60 1018.80 1019.24 1019.56 1019.84 1020.28 1020.40 1020.16 1019.44 1019.08 1019.04 1019.08 1019.20 1019.32 1019.48 1019.68 1019.80 1019.96 1020.08 1020.16 1020.32 1020.44 1020.48 1020.64 1020.72 1020.88 1020.92 1021.04 1021.08 1021.00 1021.16 1021.52 1021.68 1021.56 1021.64 1021.84 1022.04 1022.08 1022.32 1022.48 1022.68 1022.84 1023.04 1023.00 1023.12
1015.04 1015.68 1015.60 1015.28 1015.48 1015.64 1015.80 1015.96 1016.08 1016.20 1016.36 1016.56 1016.76 1016.76 1016.88 1017.56 1018.12 1018.52 1018.96 1019.28 1019.56 1020.00 1020.60 1020.88 1021.08 1020.76 1020.04 1019.44 1019.36 1019.36 1019.36 1019.32 1019.44 1019.60 1019.84 1020.08 1020.24 1020.32 1020.40 1020.52 1020.76 1020.84 1021.04 1021.12 1021.20 1021.28 1021.36 1021.40 1021.44 1021.60 1021.76 1021.80 1021.92 1022.04 1022.20 1022.32 1022.48 1022.60 1022.72 1022.88 1022.96 1023.16 1023.32
1015.32 1015.48 1015.52 1015.60 1015.68 1015.92 1016.04 1016.16 1016.36 1016.60 1016.92 1017.12 1017.20 1017.40 1017.64 1018.20 1018.52 1018.80 1019.20 1019.48 1019.96 1020.64 1021.20 1021.48 1021.32 1020.64 1019.96 1019.72 1019.64 1019.68 1019.64 1019.68 1019.60 1019.52 1019.76 1020.12 1020.36 1020.48 1020.68 1020.84 1021.08 1021.28 1021.52 1021.72 1021.80 1021.68 1021.64 1021.68 1021.80 1021.88 1021.96 1022.00 1022.00 1022.00 1022.32 1022.64 1022.80 1022.76 1022.84 1023.08 1023.24 1023.12 1023.20
1015.68 1015.84 1015.96 1015.76 1015.68 1015.96 1016.16 1016.40 1016.72 1017.04 1017.24 1017.40 1017.60 1017.76 1018.20 1018.60 1018.84 1019.16 1019.60 1019.96 1020.44 1021.08 1021.48 1021.84 1021.48 1020.72 1020.16 1019.96 1019.92 1019.84 1019.84 1019.92 1019.96 1020.08 1020.16 1020.52 1020.84 1021.08 1021.24 1021.36 1021.60 1021.88 1022.16 1022.40 1022.40 1022.28 1022.36 1022.40 1022.24 1022.16 1022.12 1022.16 1022.24 1022.32 1022.36 1022.48 1022.72 1022.96 1023.08 1023.12 1023.16 1023.24 1023.24
1016.16 1016.12 1016.44 1016.28 1016.00 1016.20 1016.56 1016.72 1016.84 1017.16 1017.56 1017.68 1017.76 1018.20 1018.68 1018.92 1019.32 1019.64 1019.84 1020.32 1021.04 1021.44 1021.64 1021.76 1021.52 1021.16 1020.48 1020.12 1020.08 1019.96 1020.00 1020.12 1020.36 1020.60 1020.72 1020.88 1021.04 1021.20 1021.32 1021.48 1021.80 1021.96 1022.12 1022.12 1022.48 1022.84 1022.56 1022.32 1022.36 1022.28 1022.28 1022.40 1022.60 1022.64 1022.72 1022.76 1022.80 1022.76 1022.88 1023.00 1023.04 1023.16 1023.08
1016.24 1016.36 1016.60 1016.68 1016.48 1016.56 1016.84 1017.16 1017.24 1017.32 1017.64 1017.88 1018.24 1018.76 1019.04 1019.44 1019.80 1020.12 1020.44 1020.84 1021.32 1021.60 1021.68 1021.72 1021.48 1021.20 1020.88 1020.32 1020.16 1020.08 1020.12 1020.36 1020.68 1020.88 1021.04 1021.08 1021.12 1021.24 1021.36 1021.44 1021.60 1021.92 1022.36 1022.36 1022.48 1022.76 1022.84 1022.56 1022.40 1022.24 1022.24 1022.32 1022.52 1022.72 1022.84 1022.88 1022.96 1023.12 1023.12 1023.04 1023.04 1023.04 1023.00
1016.40 1016.64 1016.80 1016.96 1017.04 1017.16 1017.32 1017.48 1017.56 1017.72 1018.00 1018.48 1018.92 1019.24 1019.48 1019.80 1020.20 1020.48 1020.72 1020.92 1021.12 1021.56 1021.92 1021.84 1021.20 1020.84 1020.60 1020.36 1020.28 1020.16 1020.28 1020.56 1020.92 1021.24 1021.36 1021.40 1021.48 1021.52 1021.56 1021.64 1021.76 1021.92 1022.36 1022.44 1022.68 1023.12 1023.16 1022.96 1022.76 1022.60 1022.52 1022.48 1022.52 1022.64 1022.76 1022.84 1022.88 1022.92 1023.00 1023.08 1023.12 1023.08 1023.00
1016.56 1016.84 1017.08 1017.32 1017.32 1017.56 1017.84 1017.92 1018.08 1018.16 1018.44 1018.96 1019.28 1019.48 1019.84 1020.12 1020.44 1020.76 1020.96 1021.08 1021.24 1021.56 1021.88 1021.64 1021.12 1020.92 1020.76 1020.56 1020.28 1020.16 1020.36 1020.76 1021.16 1021.48 1021.68 1021.76 1021.80 1021.88 1021.92 1021.96 1022.12 1022.52 1023.00 1023.32 1023.40 1023.24 1023.40 1023.36 1022.88 1022.88 1022.80 1022.72 1022.64 1022.64 1022.64 1022.96 1022.96 1022.92 1022.96 1023.00 1023.04 1023.08 1023.08
1016.80 1017.00 1017.16 1017.32 1017.64 1017.72 1017.96 1018.24 1018.56 1018.56 1018.92 1019.36 1019.72 1020.12 1020.44 1020.68 1020.88 1021.04 1021.24 1021.44 1021.52 1021.80 1021.88 1021.84 1021.40 1021.16 1021.00 1020.92 1020.48 1020.48 1020.60 1020.88 1021.32 1021.72 1022.20 1022.44 1022.48 1022.44 1022.52 1022.64 1022.76 1023.04 1023.32 1023.76 1023.88 1023.32 1023.24 1023.08 1022.96 1022.96 1022.96 1022.80 1022.76 1022.80 1022.80 1023.00 1023.00 1023.00 1023.08 1023.08 1023.08 1023.04 1023.04
1017.32 1017.56 1017.76 1018.00 1018.24 1018.44 1018.56 1018.80 1018.96 1018.96 1019.24 1019.72 1020.16 1020.52 1020.72 1021.08 1021.36 1021.56 1021.68 1021.88 1021.96 1022.00 1022.24 1022.16 1021.80 1021.56 1021.28 1021.00 1020.84 1020.84 1020.92 1021.16 1021.72 1022.20 1022.80 1023.08 1023.12 1023.16 1023.32 1023.20 1023.24 1023.32 1023.36 1023.64 1023.72 1023.44 1023.32 1023.24 1023.24 1023.28 1023.12 1023.08 1023.04 1023.08 1023.04 1023.20 1023.24 1023.04 1023.00 1022.92 1022.92 1022.92 1022.96
1018.00 1018.20 1018.44 1018.68 1018.84 1018.96 1018.96 1019.20 1019.36 1019.48 1019.80 1020.08 1020.60 1020.88 1021.04 1021.24 1021.64 1021.88 1022.00 1022.12 1022.20 1022.24 1022.48 1022.48 1022.32 1022.08 1021.88 1021.64 1021.36 1021.36 1021.36 1021.52 1022.04 1022.72 1023.08 1023.40 1023.36 1023.40 1023.64 1023.76 1023.72 1023.68 1023.72 1023.92 1023.76 1023.56 1023.52 1023.36 1023.28 1023.36 1023.48 1023.40 1023.28 1023.24 1023.48 1023.68 1023.48 1023.36 1023.16 1022.96 1022.72 1022.68 1022.60
1018.76 1018.84 1018.96 1019.12 1019.20 1019.40 1019.40 1019.52 1019.72 1019.92 1020.28 1020.52 1020.92 1021.28 1021.56 1021.80 1022.00 1022.32 1022.44 1022.52 1022.56 1022.60 1022.64 1022.88 1022.88 1022.48 1022.28 1022.12 1022.00 1021.96 1022.08 1022.08 1022.44 1022.80 1023.08 1023.12 1023.36 1023.68 1023.92 1024.12 1024.24 1024.28 1024.12 1024.08 1024.12 1024.08 1023.92 1023.84 1023.52 1023.56 1023.56 1023.44 1023.44 1023.32 1024.00 1023.84 1023.64 1023.76 1023.56 1023.40 1023.16 1022.88 1022.68
1019.28 1019.36 1019.36 1019.40 1019.44 1019.60 1019.72 1019.88 1020.08 1020.20 1020.56 1020.88 1021.20 1021.52 1021.80 1022.00 1022.24 1022.52 1022.64 1022.68 1022.76 1022.92 1023.08 1023.20 1023.36 1023.04 1022.80 1022.60 1022.48 1022.36 1022.60 1022.68 1022.60 1022.68 1023.00 1023.40 1023.68 1023.88 1024.04 1024.20 1024.36 1024.44 1024.40 1024.40 1024.44 1024.36 1024.32 1024.28 1024.24 1024.00 1023.92 1023.80 1024.00 1024.28 1024.56 1024.08 1023.64 1023.72 1023.60 1023.32 1023.08 1022.92 1022.72
1019.68 1019.72 1019.76 1019.76 1019.80 1019.88 1020.00 1020.08 1020.32 1020.56 1020.64 1020.92 1021.28 1021.64 1021.88 1022.08 1022.32 1022.64 1022.80 1022.84 1022.96 1023.20 1023.40 1023.44 1023.48 1023.48 1023.28 1023.08 1022.96 1022.80 1022.96 1023.40 1023.28 1023.04 1023.32 1023.72 1023.96 1024.04 1024.12 1024.12 1024.12 1024.32 1024.28 1024.20 1024.20 1024.24 1024.32 1024.40 1024.40 1024.28 1024.20 1024.32 1024.40 1024.36 1024.24 1024.36 1024.24 1023.92 1023.56 1023.28 1023.04 1022.80 1022.76
1020.68 1020.52 1020.40 1020.36 1020.36 1020.48 1020.44 1020.44 1020.56 1020.60 1020.76 1021.12 1021.44 1021.76 1022.00 1022.20 1022.36 1022.68 1022.96 1023.12 1023.28 1023.44 1023.60 1023.72 1023.76 1023.72 1023.68 1023.56 1023.52 1023.52 1023.60 1023.60 1023.52 1023.52 1023.68 1023.92 1024.08 1024.16 1024.20 1024.20 1024.20 1024.16 1024.04 1024.00 1024.08 1024.24 1024.36 1024.48 1024.56 1024.48 1024.56 1024.52 1024.48 1024.52 1024.60 1024.40 1024.24 1023.96 1023.80 1023.68 1023.56 1023.44 1023.32
1021.24 1021.20 1021.16 1021.20 1021.32 1021.64 1021.68 1021.56 1021.48 1021.36 1021.16 1021.28 1021.52 1021.76 1022.08 1022.24 1022.56 1022.80 1023.16 1023.40 1023.56 1023.72 1023.88 1024.00 1024.12 1024.08 1024.00 1023.88 1023.80 1023.88 1023.92 1024.00 1023.96 1024.12 1024.24 1024.36 1024.32 1024.24 1024.04 1024.08 1024.16 1024.16 1024.08 1024.00 1024.16 1024.32 1024.32 1024.28 1024.20 1024.32 1024.48 1024.56 1024.64 1024.84 1024.64 1024.28 1024.16 1024.16 1024.16 1024.20 1024.16 1024.12 1024.12
Wind_Speed
8 8 9 9 6 7 7 7 6 6 6 6 6 6 7 7 5 5 6 6 6 8 5 5 5 5 5 3 4 5 5 6 7 8 6 5 6 3 1 2 1 5 5 3 5 6 6 6 2 1 1 1 2 2 2 3 3 4 5 4 5 5 5
5 2 5 6 7 7 7 5 5 5 6 6 6 7 8 9 7 6 6 6 7 5 6 5 4 5 5 4 5 6 5 5 5 6 6 6 4 5 3 1 3 4 3 3 5 4 4 5 3 4 3 0 0 1 2 1 3 4 5 5 5 5 6
3 2 4 6 6 6 7 6 5 5 5 6 5 9 9 8 8 7 6 4 5 4 5 5 5 5 4 6 5 6 5 4 3 6 7 5 5 4 4 4 4 4 4 2 1 3 3 1 7 6 5 5 4 3 1 3 3 3 6 5 5 5 5
5 4 4 3 5 6 7 6 6 5 5 6 6 10 10 11 9 8 7 6 5 4 6 3 5 6 5 6 7 6 5 5 4 5 5 4 5 5 3 5 6 7 6 4 6 4 4 3 5 5 4 3 4 5 2 3 3 5 6 5 5 5 5
8 6 6 5 5 6 7 7 6 5 5 6 6 7 8 8 9 7 7 7 6 4 5 5 5 6 6 6 6 6 6 4 4 6 5 5 4 4 3 4 5 5 3 5 5 6 6 6 8 7 6 3 3 1 2 1 3 7 6 5 4 5 5
7 7 5 6 5 5 6 6 6 6 6 6 6 7 7 7 7 7 7 7 7 6 6 6 4 6 5 6 6 6 6 6 6 6 6 5 6 6 5 3 5 4 4 3 5 5 4 6 7 8 3 5 4 3 3 3 2 2 3 5 5 5 6
6 6 5 6 5 5 6 6 7 7 6 6 7 7 7 7 6 7 7 7 7 7 7 7 6 5 5 6 6 6 7 6 5 5 5 5 6 5 5 5 4 3 3 3 4 5 6 7 7 8 7 3 4 5 3 2 3 4 1 3 5 5 5
5 5 5 5 5 5 5 6 7 7 7 6 7 6 7 7 6 5 6 6 5 7 6 6 6 6 5 5 6 6 6 6 5 5 5 6 6 6 4 6 5 4 5 5 5 5 5 7 7 8 8 9 4 4 4 2 5 2 5 3 6 4 5
3 4 4 3 3 4 5 6 7 6 7 7 6 6 6 6 6 7 6 6 5 6 7 7 6 6 5 6 5 6 6 4 6 6 5 6 6 6 6 5 6 5 5 5 4 5 5 6 7 6 6 8 10 7 4 4 3 2 4 5 2 3 6
4 5 5 4 4 3 4 5 7 7 7 7 6 5 7 6 6 6 6 6 6 5 6 7 7 6 5 6 6 5 6 5 5 5 5 5 4 5 5 6 6 6 5 5 4 4 5 4 6 6 6 7 6 9 7 6 5 5 4 7 6 2 3
4 4 3 4 3 4 3 4 6 7 7 7 6 6 7 6 6 6 6 5 5 5 5 5 6 5 5 6 5 6 5 5 4 3 3 5 5 4 4 5 5 6 4 5 5 4 4 5 5 6 7 6 7 8 5 7 6 4 6 4 2 5 4
2 3 4 3 3 3 3 5 7 7 7 6 7 7 6 6 6 6 6 5 5 4 4 5 5 4 5 6 5 6 5 5 6 5 3 4 4 4 4 5 4 4 4 3 3 4 5 5 5 5 4 2 5 6 6 6 6 4 5 6 2 4 8
2 3 4 3 4 3 4 6 7 7 8 7 6 6 6 7 6 6 5 5 4 4 6 5 4 5 5 5 5 6 6 6 6 5 4 4 4 4 5 5 4 4 3 3 4 4 4 3 2 4 5 3 3 5 7 6 6 7 3 5 6 6 8
8 6 4 6 4 4 4 7 7 7 7 7 7 6 7 7 7 6 5 4 4 4 4 4 5 5 4 4 4 5 4 6 6 5 5 5 4 5 5 4 4 4 3 4 3 1 2 3 4 5 5 5 4 5 6 4 6 5 2 2 7 7 7
8 5 6 6 6 5 6 7 7 8 8 7 7 7 7 6 7 6 5 4 4 4 4 5 4 4 4 4 4 4 4 5 5 6 5 5 5 4 5 5 4 4 3 3 2 2 3 2 2 4 6 7 6 6 4 4 3 4 5 3 3 4 7
7 6 7 6 6 6 6 5 7 8 8 7 6 6 6 7 7 6 5 4 4 4 5 4 3 5 6 5 4 3 5 6 5 5 5 6 6 5 5 5 4 4 3 2 1 2 1 1 3 5 5 5 6 4 3 6 5 4 8 5 5 7 6
6 6 7 7 8 8 8 6 6 7 6 6 6 4 7 6 6 6 5 5 4 4 4 4 4 5 5 5 6 5 5 5 4 4 5 6 7 6 6 5 4 4 3 2 2 3 2 1 2 5 4 4 4 4 3 5 6 6 4 7 5 8 7
5 7 5 7 10 10 6 7 6 6 6 5 5 6 6 5 6 6 6 5 4 4 4 4 5 4 4 5 6 5 5 4 4 4 4 6 6 6 5 6 5 4 3 2 3 2 1 3 4 6 7 6 6 6 4 5 5 5 6 7 5 4 7
5 1 4 9 9 5 7 7 6 5 5 5 6 7 6 4 6 6 6 5 4 4 4 4 5 4 4 4 4 4 4 5 6 3 5 4 5 5 5 4 4 3 3 4 2 2 4 4 4 4 5 5 5 5 6 4 4 4 5 6 6 4 4
9 6 4 8 7 5 6 6 6 5 5 5 6 6 5 6 5 5 5 4 4 5 7 7 4 3 4 4 5 6 6 6 6 4 4 5 5 5 4 4 3 2 3 4 5 4 4 5 5 4 4 6 4 6 5 4 6 6 6 5 3 4 7
4 3 7 8 8 7 6 7 6 5 6 5 5 5 5 7 6 4 8 10 8 8 8 8 7 6 4 4 4 5 5 4 5 5 5 4 5 4 4 3 3 3 5 4 5 4 4 5 5 6 5 4 5 4 3 3 4 4 4 2 2 2 2
6 1 4 8 8 7 6 6 5 6 6 5 4 4 5 7 10 10 9 10 10 9 9 7 6 5 4 5 4 4 4 5 6 5 4 5 5 5 5 5 5 5 7 9 12 10 8 6 6 6 4 5 5 5 4 5 5 6 5 5 1 1 2
9 4 1 7 6 6 6 5 5 6 5 4 4 4 6 10 10 10 10 10 10 9 7 5 7 8 5 5 5 5 3 4 5 6 8 7 6 6 6 6 7 12 12 12 11 13 13 13 11 7 5 5 5 5 4 5 6 4 5 4 2 2 2
4 6 6 7 5 6 6 6 5 6 8 8 9 10 12 10 9 9 9 10 10 8 6 5 8 7 10 11 7 6 6 5 3 5 7 8 7 6 5 6 5 8 9 9 8 10 11 12 11 11 10 8 6 4 5 6 4 4 3 4 0 1 1
6 6 4 4 7 8 7 9 10 9 9 10 10 11 11 9 9 9 9 10 10 7 6 8 8 9 10 10 7 5 6 6 6 6 6 8 7 7 7 8 8 7 8 8 4 4 7 7 8 8 8 9 10 10 7 5 3 3 2 2 2 0 1
7 8 6 3 7 9 9 10 11 11 10 8 10 11 9 10 9 8 9 11 9 7 7 9 9 9 9 10 9 6 6 6 8 8 8 8 7 6 6 8 7 6 5 12 9 7 3 3 4 6 8 9 9 9 8 8 6 2 4 2 2 2 2
10 8 7 5 7 10 11 10 9 10 10 10 10 10 10 10 8 9 8 9 8 7 7 9 10 9 7 9 8 6 5 7 9 9 8 7 7 7 6 6 6 5 6 8 9 9 8 6 5 4 4 4 4 5 6 6 6 3 1 1 1 2 2
10 9 8 7 8 9 10 10 10 10 10 10 9 9 8 9 8 7 7 7 8 8 6 10 11 12 11 10 7 6 7 7 8 8 7 6 6 6 6 6 5 6 6 6 7 6 5 5 4 3 4 4 3 3 2 1 0 0 1 1 2 3 4
10 11 10 8 9 11 9 9 10 9 11 9 9 9 9 8 8 8 7 8 8 8 7 13 12 12 12 10 8 6 7 8 8 7 7 6 6 5 4 5 7 8 8 8 5 6 2 4 2 3 3 3 3 4 3 1 3 3 3 3 3 3 3
10 10 9 10 8 10 10 9 7 7 10 8 9 9 9 8 7 8 9 9 9 8 8 12 13 12 9 8 5 5 6 7 7 8 8 7 7 7 7 6 7 7 7 5 5 7 7 4 4 3 3 3 4 4 6 5 4 3 5 6 7 6 6
9 8 8 9 8 7 8 7 6 6 9 9 9 8 8 9 9 8 10 10 8 9 8 11 14 12 11 10 7 6 6 8 8 8 8 7 7 8 10 12 9 8 7 5 6 8 8 4 5 3 2 2 3 5 5 5 5 4 3 4 6 8 7
9 9 10 8 7 8 9 8 7 8 8 9 8 7 7 9 8 8 8 8 10 10 8 10 13 13 14 12 9 6 7 7 8 7 7 7 7 7 7 9 11 8 6 4 6 8 9 5 4 3 2 2 2 2 3 5 6 6 7 7 6 3 4
8 8 9 8 8 7 7 8 8 9 8 8 8 8 8 8 9 7 6 7 7 8 9 8 10 14 14 15 13 9 6 8 7 6 6 7 8 7 6 5 6 7 7 6 5 6 7 7 4 2 3 2 3 4 3 6 6 5 6 4 5 5 5
9 8 7 7 7 7 7 8 7 9 9 8 8 8 8 7 8 7 6 7 8 8 7 8 10 14 15 15 15 12 8 8 6 7 7 7 6 6 5 4 3 3 5 5 4 4 4 4 4 2 2 1 1 2 3 4 7 7 5 6 5 5 5
8 7 5 5 5 6 6 7 7 7 7 8 9 8 7 7 8 7 6 7 7 8 7 9 8 11 13 15 16 16 10 8 6 6 7 6 5 5 4 3 3 3 4 5 4 6 5 4 4 2 2 2 3 4 5 4 4 5 6 6 6 7 6
11 9 9 9 8 8 7 6 4 5 8 7 8 8 7 7 8 8 7 6 6 7 7 8 11 10 13 14 14 14 14 10 11 8 7 6 4 3 2 2 2 6 7 7 6 6 4 3 1 0 1 1 2 5 4 3 4 5 6 7 7 8 8
11 10 10 10 10 11 10 10 10 7 4 4 6 7 6 6 7 8 8 7 6 6 6 6 9 13 11 15 15 15 14 13 10 7 7 5 4 4 5 5 5 7 7 7 7 6 5 5 3 3 1 1 3 3 4 5 6 6 6 8 8 7 7
Wind_Direction
199 171 161 163 163 157 153 154 150 157 162 167 174 172 169 167 173 167 178 175 191 189 171 154 157 160 146 154 145 148 152 152 152 149 165 171 161 205 178 161 84 99 129 96 128 148 130 140 143 86 74 283 267 248 222 177 146 137 121 113 107 103 103
213 162 153 152 153 150 140 145 150 157 175 181 186 181 161 167 172 170 176 177 186 178 155 155 153 152 158 154 127 133 147 155 153 155 149 179 166 175 150 203 103 106 99 95 125 118 135 134 130 161 162 303 72 276 283 235 142 119 113 121 116 105 103
199 151 141 146 144 144 142 156 159 161 173 192 179 161 166 165 171 172 169 165 173 153 147 160 157 149 149 123 137 135 138 136 142 146 157 173 172 173 178 160 129 115 85 76 102 109 78 145 154 165 173 161 152 235 215 138 140 100 110 120 115 105 99
171 162 142 146 146 145 145 160 166 179 178 183 156 156 164 167 172 172 165 166 152 141 152 144 152 147 137 137 137 130 134 139 142 134 140 156 154 166 179 154 152 155 161 160 174 159 152 140 114 144 164 176 157 140 172 162 139 100 125 124 116 101 104
161 167 169 164 173 157 157 165 171 162 170 161 152 146 154 158 156 158 161 153 152 147 139 124 130 139 141 137 137 138 145 150 149 144 150 155 147 138 148 136 150 159 147 147 169 158 152 161 150 149 159 148 102 93 130 83 72 125 136 136 122 114 112
161 166 166 165 173 167 166 157 152 155 148 137 140 131 142 143 139 140 147 147 148 155 146 141 144 134 139 132 140 144 149 158 169 161 158 163 150 144 152 136 134 140 155 149 145 155 146 137 141 143 155 154 139 141 123 127 88 72 133 133 121 122 118
168 163 167 167 177 170 158 151 149 149 143 139 133 134 138 131 132 137 138 141 142 147 149 150 147 145 143 142 149 156 162 167 164 158 156 148 143 147 141 139 148 154 156 150 159 142 146 142 151 152 148 143 138 138 130 107 126 119 176 137 125 129 130
165 156 154 163 179 164 155 146 145 147 141 143 136 142 131 132 137 126 140 144 142 143 149 146 147 143 143 137 154 160 157 159 167 156 154 147 146 148 141 148 148 142 149 158 153 165 147 157 154 158 152 143 134 132 140 123 158 197 154 130 140 142 138
141 130 131 160 199 170 158 144 148 147 143 141 143 138 136 137 129 127 123 133 139 135 140 146 147 150 153 140 145 151 156 164 161 159 166 158 157 155 156 146 130 149 157 157 154 154 143 152 150 159 152 157 149 151 135 138 165 167 151 124 109 144 144
144 154 166 179 193 185 148 142 147 142 131 136 142 129 130 126 125 117 116 122 131 136 136 141 149 161 154 146 150 145 154 160 154 159 157 153 156 145 144 148 149 153 162 159 160 156 152 159 150 156 166 161 162 143 148 154 195 152 173 153 143 189 153
153 148 171 192 197 171 131 140 131 124 128 135 131 130 126 123 115 116 109 107 117 126 143 138 148 152 135 152 154 148 158 146 141 141 148 141 146 137 131 134 147 149 160 152 168 173 165 170 161 169 165 161 152 151 153 155 181 182 156 194 162 139 165
123 151 184 202 204 170 149 150 133 132 128 124 119 127 119 112 121 117 111 109 120 130 113 130 150 133 125 144 148 141 149 139 137 151 155 140 155 145 139 139 139 128 139 153 172 181 174 167 166 148 159 146 159 148 146 146 143 219 162 162 133 150 151
311 224 184 169 232 171 165 141 129 126 137 129 127 128 117 121 121 118 116 120 127 128 137 144 131 129 131 134 138 135 142 138 141 149 150 157 154 143 139 139 137 138 150 146 165 170 178 146 138 163 173 193 174 153 140 133 128 164 185 147 146 148 151
215 211 171 196 199 165 149 130 129 135 128 129 127 125 124 127 124 118 121 130 137 140 120 132 136 137 135 140 144 156 150 143 142 153 150 154 152 140 139 129 134 156 159 161 184 157 160 183 173 156 182 169 164 156 136 121 122 119 58 121 141 151 155
203 196 186 177 159 153 132 130 134 125 130 138 130 132 131 128 124 128 135 146 146 130 130 142 148 128 135 138 156 163 145 142 137 148 149 151 156 146 129 126 140 156 152 160 151 206 188 192 168 158 159 158 159 162 150 104 134 119 136 115 120 132 148
189 187 169 161 144 128 108 123 125 125 130 137 130 129 135 135 132 137 133 141 141 133 144 157 129 130 150 144 124 100 114 128 139 149 143 148 151 138 128 136 158 165 145 154 211 236 239 177 207 165 151 156 158 154 119 126 120 116 141 172 170 151 162
183 165 151 141 134 128 138 134 122 124 130 132 121 128 131 136 132 140 133 137 154 145 152 131 137 148 131 117 127 125 116 124 124 127 138 137 140 139 144 144 166 168 156 173 256 256 180 170 101 102 115 119 123 114 109 120 130 131 158 145 192 166 176
151 177 167 137 131 135 144 126 123 131 132 126 117 134 125 121 123 132 136 143 154 137 153 126 133 115 100 136 136 133 127 117 115 110 115 133 134 134 140 155 160 141 134 173 246 274 45 32 109 133 123 127 123 129 112 120 140 141 143 154 176 210 173
135 117 169 139 140 142 133 124 127 132 129 122 123 130 129 127 124 134 137 151 139 147 151 132 131 133 107 101 107 119 125 119 112 119 107 112 127 131 144 155 143 118 150 170 148 102 81 79 75 82 99 114 123 110 115 134 130 109 139 178 157 170 201
155 152 190 135 130 130 127 126 128 134 128 118 116 136 116 131 133 137 144 123 91 77 52 40 42 78 96 90 91 116 128 135 134 144 131 131 128 125 133 147 132 149 136 113 88 83 91 75 83 72 87 106 112 103 98 121 139 156 176 183 163 175 191
55 160 156 127 120 125 121 120 123 120 120 115 121 127 133 137 149 93 80 79 74 71 62 42 32 20 37 83 91 87 107 122 129 141 152 143 137 129 116 95 97 94 84 79 97 83 76 83 60 59 17 90 113 105 91 70 89 104 136 159 150 157 230
112 221 154 108 118 119 115 113 109 113 117 117 110 129 140 112 87 88 81 82 79 70 61 49 30 10 12 45 49 85 91 99 109 118 107 98 100 99 93 90 80 75 80 79 75 77 65 72 92 72 38 60 60 79 74 70 91 102 97 110 87 97 92
126 128 90 120 126 123 116 115 117 121 112 102 102 97 82 85 101 97 92 79 76 70 62 53 28 15 357 66 54 40 51 90 96 105 102 105 101 98 99 93 85 84 77 73 76 75 73 76 76 86 95 80 88 88 89 74 54 65 97 96 120 112 43
87 118 140 141 130 112 121 118 101 75 68 74 75 73 78 83 84 85 85 86 74 68 60 38 16 27 43 49 59 66 65 32 45 108 110 112 118 106 88 78 75 70 67 52 47 63 92 97 98 96 91 92 92 102 98 80 76 79 82 95 91 101 154
64 51 16 107 122 126 112 97 89 85 83 79 80 82 80 83 83 85 86 80 75 63 63 22 17 29 44 50 49 63 65 62 52 42 57 75 77 73 79 74 66 67 56 46 49 56 44 45 79 89 89 82 75 64 73 114 127 74 105 98 65 226 176
83 66 17 15 94 96 97 99 101 92 86 86 81 79 83 79 75 77 82 81 74 59 47 16 15 19 36 50 41 51 63 67 70 68 66 73 81 86 90 90 89 79 73 54 37 10 34 64 71 96 100 93 76 80 70 53 38 122 158 138 169 219 194
84 75 65 34 72 88 87 84 87 93 89 79 78 79 73 73 70 65 69 81 80 63 47 9 13 13 19 55 45 49 62 70 80 83 84 86 88 88 81 89 93 88 76 64 53 16 350 2 9 39 44 54 71 84 88 106 108 80 126 162 171 238 241
96 85 74 70 75 77 87 88 80 79 80 80 79 75 75 73 69 72 69 75 73 57 37 12 23 16 11 27 50 68 61 74 86 84 83 81 83 92 98 94 88 89 87 79 72 58 345 343 350 40 43 16 15 18 27 53 85 211 214 195 182 206 246
103 97 88 65 71 82 72 75 83 84 85 82 82 82 72 71 70 66 61 64 66 53 27 19 25 19 11 2 23 58 71 93 97 95 82 76 68 54 60 79 84 67 55 43 40 72 347 281 34 66 34 353 350 344 332 142 270 257 247 246 243 243 241
102 103 96 89 72 77 77 69 59 76 83 81 80 74 73 66 64 71 68 62 66 54 34 16 22 19 12 359 35 58 83 89 88 82 73 65 60 54 50 57 70 81 76 68 10 34 8 23 64 54 33 348 338 340 333 357 1 318 267 253 247 254 248
79 81 84 85 80 76 84 75 71 64 82 82 73 69 80 77 65 66 70 67 65 67 44 21 24 24 28 29 48 70 82 92 88 84 77 59 62 65 53 56 75 76 71 49 17 37 34 65 77 64 41 10 341 344 338 346 347 340 327 272 270 260 261
66 73 74 73 78 83 81 84 83 79 82 85 85 88 80 80 76 65 64 71 63 66 56 34 34 43 44 42 52 52 63 78 86 87 95 86 74 72 57 46 52 61 75 77 48 40 32 45 80 62 54 59 26 349 314 332 336 337 334 336 322 312 281
54 69 84 84 82 79 88 85 86 90 83 87 90 86 81 82 84 76 73 73 69 68 65 50 38 49 49 48 52 67 55 68 78 104 97 82 71 64 66 59 48 59 75 72 64 54 43 38 65 40 33 61 16 320 349 335 313 318 311 307 303 306 296
61 56 62 78 88 89 86 97 99 101 101 97 101 95 96 98 91 85 74 72 75 63 68 68 46 49 53 52 51 60 58 52 51 77 86 80 76 74 68 65 74 82 100 111 107 96 88 56 27 22 59 114 237 317 338 319 317 332 322 318 317 315 316
46 49 48 49 66 84 95 101 101 103 109 112 107 104 105 106 102 94 81 75 75 72 60 61 61 46 50 54 54 54 58 45 34 81 87 91 85 75 70 62 50 30 36 48 54 56 62 55 22 13 13 25 351 343 326 316 308 316 323 333 339 346 349
39 41 42 37 39 40 33 50 73 102 116 116 112 114 110 106 100 95 90 79 76 72 62 55 45 45 40 48 55 59 58 53 45 62 78 75 71 82 93 65 43 18 10 4 15 21 28 20 77 303 150 359 322 310 318 316 317 324 340 346 356 354 348
39 37 42 51 56 51 46 51 44 20 28 84 116 120 116 109 103 103 99 86 71 65 58 57 42 40 42 42 48 55 55 55 61 76 72 71 46 35 20 9 354 347 345 339 351 5 10 23 17 348 196 281 328 340 333 340 359 18 36 34 30 23 17